Home > Time Zones > World Clock > Weather > Peru > Cuzco > Past weeks

Flag for Peru Weather past 2 weeks in Cuzco, Cusco, Peru

Now
52 °F

Passing clouds.


Feels Like: 49 °F
Forecast: 42 / 61 °F
Wind: 7 mph from Northwest

Location: Cuzco Airport

Current Time: Sep 17, 2014 at 9:13:30 PM

Latest Report: Sep 17, 2014 at 9:00 PM


Visibility: N/A

Pressure: 30.48 "Hg

Humidity: 54%

Dew point: 36 °F

Location of CuzcoLocation

Historic Weather in Cuzco — Graph

°F

Cuzco temperature yesterday

Maximum temperature yesterday: 70 °F (at 12:00 PM)
Minimum temperature yesterday: 41 °F (at 4:00 AM)
Average temperature yesterday: 54 °F

Past Weeks' High & Low Weather Summary

 TemperatureHumidityPressure
High73 °F (Sep 10, 1:00 PM)93% (Sep 7, 6:00 AM)30.63 "Hg (Sep 7, 6:00 AM)
Low34 °F (Sep 8, 6:00 AM)13% (Sep 7, 2:00 PM)30.27 "Hg (Sep 11, 4:00 PM)
Average53 °F56%30.48 "Hg
* Reported Sep 2 8:00 PM — Sep 17 8:00 PM, Cuzco, Weather by CustomWeather, © 2014

Note: Actual official high and low records may vary slightly from our data, if they occured in-between our weather recording intervals... More about our weather records

Advertising

Cuzco weather history for previous 24 hours

 ConditionsComfort  
Time TempWeatherWind HumidityBarometerVisibility
8:00 PM
Sep 17
54 °FPassing clouds.8 mph51%30.48 "HgN/A
7:00 PM55 °FPassing clouds.9 mph47%30.45 "HgN/A
6:00 PM55 °FPassing clouds.13 mph47%30.45 "HgN/A
2:00 PM64 °FBroken clouds.14 mph30%30.39 "HgN/A
1:00 PM68 °FScattered showers. Broken clouds.6 mph23%30.42 "HgN/A
12:00 PM66 °FScattered clouds.7 mph26%30.45 "HgN/A
11:00 AM66 °FScattered clouds.5 mph26%30.51 "HgN/A
10:00 AM61 °FScattered clouds.5 mph39%30.54 "HgN/A
9:00 AM59 °FScattered clouds.3 mph45%30.57 "HgN/A
8:00 AM55 °FScattered clouds.2 mph51%30.54 "HgN/A
7:00 AM50 °FScattered clouds.No wind62%30.54 "HgN/A
6:00 AM45 °FScattered clouds.No wind71%30.51 "HgN/A
5:00 AM46 °FPassing clouds.No wind71%30.48 "HgN/A
4:00 AM50 °FPassing clouds.No wind62%30.48 "HgN/A
3:00 AM48 °FPartly cloudy.3 mph66%30.48 "HgN/A
2:00 AM50 °FPartly cloudy.3 mph62%30.48 "HgN/A
1:00 AM50 °FPassing clouds.No wind62%30.48 "HgN/A
12:00 AM50 °FPassing clouds.No wind62%30.51 "HgN/A
11:00 PM
Sep 16
48 °FPassing clouds.6 mph66%30.51 "HgN/A
10:00 PM52 °FPassing clouds.No wind58%30.51 "HgN/A
9:00 PM54 °FPassing clouds.7 mph54%30.48 "HgN/A
Weather by CustomWeather, © 2014

See weather overviewHow to use our weather pages